Overview Statistics Trail Chart Weather Telemetry Raw packets
 

This is the latest recevied weather packets stored in our database for station/object KK6MIG-13. If no packets are shown the sender has not sent any weather packets the latest 10 day(s).

<< 416 417 418 419 420 421 422 >>
Time Temp. Humidity Pressure Rain* Wind** Luminosity Snow
1788030534 15.56° C 5% 1015.1 hPa 0 mm - 496 W/m² -
1788030474 15.56° C 4% 1015.2 hPa 0 mm - 496 W/m² -
1788030414 15.56° C 1% 1015.2 hPa 0 mm - 496 W/m² -
1788030353 15.56° C 1% 1015.2 hPa 0 mm - 589 W/m² -
1788030295 15.56° C 1% 1015.2 hPa 0 mm - 598 W/m² -
1788030234 15.56° C 5% 1015.2 hPa 0 mm - 724 W/m² -
1788030172 15.56° C 9% 1015.2 hPa 0 mm - 724 W/m² -
1788030112 15.56° C 7% 1015.2 hPa 0 mm - 515 W/m² -
1788030052 15.56° C 3% 1015.2 hPa 0 mm - 515 W/m² -
1788029992 15.56° C 5% 1015.2 hPa 0 mm - 561 W/m² -
1788029940 15.56° C 9% 1015.3 hPa 0 mm - 594 W/m² -
1788029935 15.56° C 8% 1015.2 hPa 0 mm - 594 W/m² -
1788029806 15.56° C 14% 1015.2 hPa 0 mm - 594 W/m² -
1788029746 15.56° C 18% 1015.3 hPa 0 mm - 612 W/m² -
1788029685 15.56° C 17% 1015.3 hPa 0 mm - 550 W/m² -
1788029626 16.11° C 13% 1015.3 hPa 0 mm - 647 W/m² -
1788029564 16.11° C 12% 1015.3 hPa 0 mm - 517 W/m² -
1788029504 16.11° C 13% 1015.3 hPa 0 mm - 517 W/m² -
1788029456 15.56° C 13% 1015.3 hPa 0 mm - 580 W/m² -
1788029388 15.56° C 11% 1015.3 hPa 0 mm - 555 W/m² -
1788029261 15.56° C 11% 1015.3 hPa 0 mm - 712 W/m² -
1788029206 15.56° C 12% 1015.3 hPa 0 mm - 548 W/m² -
1788029142 15.56° C 15% 1015.3 hPa 0 mm - 548 W/m² -
1788029080 15.56° C 12% 1015.3 hPa 0 mm - 548 W/m² -
1788029021 15.56° C 12% 1015.3 hPa 0 mm - 548 W/m² -

* Rain latest hour (hover to see other rain measurements)
** Current wind speed in m/s (hover to see current wind gust speed)